1332636634046,0.000152851
1332636694046,0.000152983
1332636754046,0.000152013
1332636814046,0.000152173
1332636874046,0.000150872
1332640234059,0.000155907
1332640294059,0.000156618
1332640354059,0.000153766
1332640414059,0.000154568
1332640474059,0.000153504
1332643834072,0.000150231
1332643894072,0.000151143
1332643954072,0.000151097
1332644014072,0.000150700
1332644074072,0.000152428
1332647434084,0.000150667
1332647494084,0.000151437
1332647554084,0.000150243
1332647614084,0.000149833
1332647674084,0.000149998
1332651034096,0.000150484
1332651094096,0.000149116
1332651154096,0.000149676
1332651214096,0.000150056
1332651274096,0.000150620
1332654634109,0.000149707
1332654694109,0.000149548
1332654754109,0.000148833
1332654814109,0.000148507
1332654874109,0.000149379
1332669034155,0.000145044
1332669094155,0.000145086
1332669154155,0.000144817
1332669214155,0.000145323
1332669274155,0.000144431
1332672634167,0.000144073
1332672694167,0.000145003
1332672754167,0.000144270
1332672814167,0.000144773
1332672874167,0.000146896
1332676234180,0.000148186
1332676294180,0.000146944
1332676354180,0.000148101
1332676414180,0.000148354
1332676474180,0.000147648
1332679834192,0.000146236
1332679894192,0.000147461
1332679954192,0.000146317
1332680014192,0.000146105
1332680074192,0.000147294
1332683434204,0.000146134
1332683494204,0.000145173
1332683554204,0.000145203
1332683614204,0.000144417
1332683674204,0.000144657
1332683734204,0.000146087
1332683794204,0.000144994
1332683854204,0.000145506
1332683914204,0.000145925
1332683974204,0.000145203
1332684034216,0.000145370
1332684094216,0.000145985
1332684154216,0.000144812
1332684214216,0.000145205
1332684274216,0.000145505
1332684334216,0.000144612
1332684394216,0.000146024
1332684454216,0.000146312
1332684514216,0.000145491
1332684574216,0.000145242
1332684634216,0.000145748
1332684694216,0.000145237
1332684754216,0.000144205
1332684814216,0.000144423
1332684874216,0.000145234
1332684934216,0.000144668
1332684994216,0.000143949
1332685054216,0.000144500
1332685114216,0.000144732
1332685174216,0.000144359
1332685234216,0.000144489
1332685294216,0.000143710
1332685354216,0.000145194
1332685414216,0.000144769
1332685474216,0.000144013
1332685534216,0.000143841
1332685594216,0.000144206
1332685654216,0.000144549
1332685714216,0.000146258
1332685774216,0.000144680
1332685834216,0.000143856
1332685894216,0.000144907
1332685954216,0.000145752
1332686014216,0.000146144
1332686074216,0.000145424
1332686134216,0.000146386
1332686194216,0.000145651
1332686254216,0.000146943
1332686314216,0.000146417
1332686374216,0.000147597
1332686434216,0.000146992
1332686494216,0.000146808
1332686554216,0.000147658
1332686614216,0.000147747
1332686674216,0.000146352
1332686734216,0.000146652
1332686794216,0.000147657
1332686854216,0.000146913
1332686914216,0.000148332
1332686974216,0.000148306
1332687034216,0.000147050
1332687094216,0.000148165
1332687154216,0.000148111
1332687214216,0.000148604
1332687274216,0.000148096
1332687334216,0.000150057
1332687394216,0.000151946
1332687454216,0.000150709
1332687514216,0.000149110
1332687574216,0.000148489
1332687634229,0.000148588
1332687694229,0.000147836
1332687754229,0.000149626
1332687814229,0.000147981
1332687874229,0.000148557
1332687934229,0.000147020
1332687994229,0.000146996
1332688054229,0.000147270
1332688114229,0.000147681
1332688174229,0.000147474
1332688234229,0.000147894
1332688294229,0.000147787
1332688354229,0.000147773
1332688414229,0.000148697
1332688474229,0.000147596
1332688534229,0.000147594
1332688594229,0.000148178
1332688654229,0.000147437
1332688714229,0.000149006
1332688774229,0.000147989
1332688834229,0.000148272
1332688894229,0.000149165
1332688954229,0.000150502
1332689014229,0.000148943
1332689074229,0.000150084
1332689134229,0.000149382
1332689194229,0.000147066
1332689254229,0.000148405
1332689314229,0.000148199
1332689374229,0.000146944
1332689434229,0.000147248
1332689494229,0.000147769
1332689554229,0.000148513
1332689614229,0.000148679
1332689674229,0.000147733
1332689734229,0.000147761
1332689794229,0.000147928
1332689854229,0.000147054
1332689914229,0.000147835
1332689974229,0.000146605
1332690034229,0.000146770
1332690094229,0.000147928
1332690154229,0.000149298
1332690214229,0.000149209
1332690274229,0.000147748
1332690334229,0.000146608
1332690394229,0.000146379
1332690454229,0.000148083
1332690514229,0.000147040
1332690574229,0.000145691
1332690634229,0.000146368
1332690694229,0.000146456
1332690754229,0.000147693
1332690814229,0.000147642
1332690874229,0.000146446
1332690934229,0.000147680
1332690994229,0.000146841
1332691054229,0.000148034
1332691114229,0.000146677
1332691174229,0.000147023
1332691234241,0.000146206
1332691294241,0.000147966
1332691354241,0.000146104
1332691414241,0.000146582
1332691474241,0.000146961
1332691534241,0.000147882
1332691594241,0.000145721
1332691654241,0.000145024
1332691714241,0.000145660
1332691774241,0.000145802
1332691834241,0.000146479
1332691894241,0.000147451
1332691954241,0.000146893
1332692014241,0.000147912
1332692074241,0.000147064
1332692134241,0.000146052
1332692194241,0.000146528
1332692254241,0.000145788
1332692314241,0.000146912
1332692374241,0.000145884
1332692434241,0.000145927
1332692494241,0.000146099
1332692554241,0.000147648
1332692614241,0.000147553
1332692674241,0.000148410
1332692734241,0.000146845
1332692794241,0.000146299
1332692854241,0.000147347
1332692914241,0.000146043
1332692974241,0.000146314
1332693034241,0.000146653
1332693094241,0.000147145
1332693154241,0.000145459
1332693214241,0.000147204
1332693274241,0.000147635
1332693334241,0.000147970
1332693394241,0.000148595
1332693454241,0.000149221
1332693514241,0.000147882
1332693574241,0.000148511
1332693634241,0.000147261
1332693694241,0.000146998
1332693754241,0.000147279
1332693814241,0.000147714
1332693874241,0.000147352
1332693934241,0.000147859
1332693994241,0.000148956
1332694054241,0.000147678
1332694114241,0.000148461
1332694174241,0.000147756
1332694234241,0.000148326
1332694294241,0.000148037
1332694354241,0.000148399
1332694414241,0.000147092
1332694474241,0.000148346
1332697834253,0.000150653
1332697894253,0.000149196
1332697954253,0.000150353
1332698014253,0.000148819
1332698074253,0.000148668
1332701434265,0.000149983
1332701494265,0.000148923
1332701554265,0.000149148
1332701614265,0.000149714
1332701674265,0.000149115
1332705034277,0.000146789
1332705094277,0.000147518
1332705154277,0.000146527
1332705214277,0.000147126
1332705274277,0.000147620
1332708634289,0.000148594
1332708694289,0.000148341
1332708754289,0.000148108
1332708814289,0.000149540
1332708874289,0.000149194
1332712234301,0.000151009
1332712294301,0.000149083
1332712354301,0.000150979
1332712414301,0.000149455
1332712474301,0.000149814
1332715834313,0.000151525
1332715894313,0.000150305
1332715954313,0.000150395
1332716014313,0.000149682
1332716074313,0.000150728
1332719434326,0.000149056
1332719494326,0.000150567
1332719554326,0.000150242
1332719614326,0.000150526
1332719674326,0.000150231
